| time (UTC) | temp F | wind direction | speed MPH | gust MPH | rain 1hr in | rain 24hr in | rain mn in | humidity % | barometer mb |
| 20260905150835 | 87 | 129 | 0.0 | 3.0 | 0.00 | 0.00 | 0.00 | 59 | 1009.5 |
| 20260905150405 | 87 | 52 | 1.0 | 3.0 | 0.00 | 0.00 | 0.00 | 59 | 1009.6 |
| 20260905145846 | 87 | 206 | 1.0 | 3.0 | 0.00 | 0.00 | 0.00 | 58 | 1009.6 |
| 20260905145341 | 87 | 295 | 1.0 | 3.0 | 0.00 | 0.00 | 0.00 | 59 | 1009.5 |
| 20260905144843 | 87 | 15 | 0.0 | 3.0 | 0.00 | 0.00 | 0.00 | 61 | 1009.5 |
| 20260905144340 | 86 | 79 | 1.0 | 3.0 | 0.00 | 0.00 | 0.00 | 61 | 1009.3 |
| 20260905143834 | 86 | 273 | 1.0 | 3.0 | 0.00 | 0.00 | 0.00 | 62 | 1009.3 |
| 20260905143340 | 85 | 74 | 1.0 | 3.0 | 0.00 | 0.00 | 0.00 | 64 | 1009.2 |
| 20260905142837 | 85 | 46 | 1.0 | 3.0 | 0.00 | 0.00 | 0.00 | 63 | 1009.2 |
| 20260905142331 | 85 | 24 | 1.0 | 3.0 | 0.00 | 0.00 | 0.00 | 64 | 1009.1 |
| 20260905141836 | 84 | 83 | 1.0 | 3.0 | 0.00 | 0.00 | 0.00 | 64 | 1009.0 |
| 20260905141334 | 84 | 155 | 1.0 | 4.0 | 0.00 | 0.00 | 0.00 | 66 | 1008.9 |
| 20260905140842 | 84 | 279 | 1.0 | 4.0 | 0.00 | 0.00 | 0.00 | 66 | 1008.8 |
| 20260905140419 | 83 | 13 | 0.0 | 3.0 | 0.00 | 0.00 | 0.00 | 68 | 1008.8 |
| 20260905135856 | 83 | 78 | 0.0 | 3.0 | 0.00 | 0.00 | 0.00 | 69 | 1008.7 |
| 20260905135336 | 83 | 117 | 0.0 | 2.0 | 0.00 | 0.00 | 0.00 | 68 | 1008.7 |
| 20260905134832 | 83 | 91 | 0.0 | 4.0 | 0.00 | 0.00 | 0.00 | 70 | 1008.7 |
| 20260905134336 | 82 | 332 | 1.0 | 4.0 | 0.00 | 0.00 | 0.00 | 70 | 1008.7 |
| 20260905133831 | 82 | 77 | 0.0 | 3.0 | 0.00 | 0.00 | 0.00 | 72 | 1008.7 |
| 20260905133331 | 82 | 77 | 0.0 | 3.0 | 0.00 | 0.00 | 0.00 | 71 | 1008.7 |
| 20260905132829 | 82 | 175 | 0.0 | 3.0 | 0.00 | 0.00 | 0.00 | 71 | 1008.9 |
| 20260905132331 | 82 | 327 | 1.0 | 3.0 | 0.00 | 0.00 | 0.00 | 71 | 1008.8 |
| 20260905131848 | 81 | 128 | 0.0 | 2.0 | 0.00 | 0.00 | 0.00 | 72 | 1008.8 |
| 20260905131329 | 81 | 191 | 1.0 | 2.0 | 0.00 | 0.00 | 0.00 | 74 | 1008.8 |
| 20260905130858 | 80 | 117 | 0.0 | 2.0 | 0.00 | 0.00 | 0.00 | 75 | 1008.8 |
| 20260905130342 | 79 | 32 | 0.0 | 2.0 | 0.00 | 0.00 | 0.00 | 76 | 1008.7 |
| 20260905125835 | 79 | 111 | 0.0 | 1.0 | 0.00 | 0.00 | 0.00 | 78 | 1008.7 |
| 20260905125332 | 78 | 109 | 0.0 | 0.0 | 0.00 | 0.00 | 0.00 | 80 | 1008.8 |
| 20260905124848 | 78 | 109 | 0.0 | 0.0 | 0.00 | 0.00 | 0.00 | 80 | 1008.8 |
| 20260905124346 | 77 | 111 | 0.0 | 1.0 | 0.00 | 0.00 | 0.00 | 81 | 1008.8 |
| 20260905123839 | 77 | 111 | 0.0 | 1.0 | 0.00 | 0.00 | 0.00 | 83 | 1009.0 |
| 20260905123349 | 76 | 82 | 0.0 | 1.0 | 0.00 | 0.00 | 0.00 | 84 | 1009.1 |
| 20260905122825 | 75 | 82 | 0.0 | 1.0 | 0.00 | 0.00 | 0.00 | 86 | 1009.1 |
| 20260905122422 | 75 | 134 | 0.0 | 1.0 | 0.00 | 0.00 | 0.00 | 87 | 1009.1 |
| 20260905121845 | 75 | 133 | 0.0 | 0.0 | 0.00 | 0.00 | 0.00 | 88 | 1009.0 |
| 20260905121337 | 74 | 133 | 0.0 | 0.0 | 0.00 | 0.00 | 0.00 | 88 | 1009.0 |
| 20260905120832 | 74 | 273 | 0.0 | 0.0 | 0.00 | 0.00 | 0.00 | 89 | 1008.9 |
| 20260905120349 | 74 | 275 | 0.0 | 0.0 | 0.00 | 0.00 | 0.00 | 89 | 1009.0 |
| 20260905115855 | 73 | 276 | 0.0 | 1.0 | 0.00 | 0.00 | 0.00 | 89 | 1009.0 |
| 20260905115355 | 73 | 276 | 0.0 | 0.0 | 0.00 | 0.00 | 0.00 | 89 | 1009.0 |
| 20260905114832 | 73 | 94 | 0.0 | 0.0 | 0.00 | 0.00 | 0.00 | 89 | 1008.9 |
| 20260905114340 | 73 | 94 | 0.0 | 0.0 | 0.00 | 0.00 | 0.00 | 90 | 1008.9 |
| 20260905113840 | 73 | 94 | 0.0 | 0.0 | 0.00 | 0.00 | 0.00 | 89 | 1008.9 |
| 20260905113337 | 73 | 94 | 0.0 | 0.0 | 0.00 | 0.00 | 0.00 | 89 | 1008.8 |
| 20260905112842 | 73 | 94 | 0.0 | 0.0 | 0.00 | 0.00 | 0.00 | 89 | 1008.9 |
| 20260905112343 | 72 | 94 | 0.0 | 0.0 | 0.00 | 0.00 | 0.00 | 89 | 1008.9 |
| 20260905111842 | 72 | 94 | 0.0 | 0.0 | 0.00 | 0.00 | 0.00 | 89 | 1008.9 |
| 20260905111336 | 72 | 94 | 0.0 | 0.0 | 0.00 | 0.00 | 0.00 | 89 | 1008.9 |
| 20260905110847 | 72 | 94 | 0.0 | 0.0 | 0.00 | 0.00 | 0.00 | 89 | 1008.7 |
| 20260905110339 | 72 | 94 | 0.0 | 0.0 | 0.00 | 0.00 | 0.00 | 89 | 1008.7 |
| 20260905105840 | 72 | 94 | 0.0 | 0.0 | 0.00 | 0.00 | 0.00 | 89 | 1008.7 |
| 20260905105358 | 72 | 94 | 0.0 | 0.0 | 0.00 | 0.00 | 0.00 | 89 | 1008.6 |
| 20260905104847 | 72 | 94 | 0.0 | 0.0 | 0.00 | 0.00 | 0.00 | 89 | 1008.5 |
| 20260905104344 | 72 | 94 | 0.0 | 0.0 | 0.00 | 0.00 | 0.00 | 89 | 1008.4 |
| 20260905103908 | 72 | 97 | 0.0 | 0.0 | 0.00 | 0.00 | 0.00 | 88 | 1008.3 |
| 20260905103353 | 72 | 97 | 0.0 | 0.0 | 0.00 | 0.00 | 0.00 | 88 | 1008.3 |
| 20260905102906 | 72 | 96 | 0.0 | 0.0 | 0.00 | 0.00 | 0.00 | 88 | 1008.2 |
| 20260905102343 | 72 | 97 | 0.0 | 0.0 | 0.00 | 0.00 | 0.00 | 88 | 1008.2 |
| 20260905101839 | 72 | 97 | 0.0 | 0.0 | 0.00 | 0.00 | 0.00 | 88 | 1008.2 |
| 20260905101342 | 72 | 96 | 0.0 | 0.0 | 0.00 | 0.00 | 0.00 | 88 | 1008.2 |
| 20260905100831 | 72 | 97 | 0.0 | 0.0 | 0.00 | 0.00 | 0.00 | 88 | 1008.2 |
| 20260905100336 | 72 | 97 | 0.0 | 0.0 | 0.00 | 0.00 | 0.00 | 88 | 1008.1 |
| 20260905095843 | 72 | 96 | 0.0 | 0.0 | 0.00 | 0.00 | 0.00 | 88 | 1008.1 |
| 20260905095408 | 72 | 97 | 0.0 | 0.0 | 0.00 | 0.00 | 0.00 | 88 | 1008.2 |
| 20260905094852 | 72 | 97 | 0.0 | 0.0 | 0.00 | 0.00 | 0.00 | 88 | 1008.3 |
| 20260905094408 | 72 | 97 | 0.0 | 0.0 | 0.00 | 0.00 | 0.00 | 88 | 1008.2 |
| 20260905093903 | 72 | 96 | 0.0 | 0.0 | 0.00 | 0.00 | 0.00 | 88 | 1008.3 |
| 20260905093354 | 73 | 96 | 0.0 | 0.0 | 0.00 | 0.00 | 0.00 | 87 | 1008.2 |
| 20260905092854 | 73 | 97 | 0.0 | 0.0 | 0.00 | 0.00 | 0.00 | 88 | 1008.2 |
| 20260905092355 | 73 | 97 | 0.0 | 0.0 | 0.00 | 0.00 | 0.00 | 87 | 1008.1 |
| 20260905091839 | 73 | 97 | 0.0 | 0.0 | 0.00 | 0.00 | 0.00 | 87 | 1008.2 |
| 20260905091332 | 73 | 97 | 0.0 | 0.0 | 0.00 | 0.00 | 0.00 | 87 | 1008.3 |
| 20260905090828 | 73 | 96 | 0.0 | 0.0 | 0.00 | 0.00 | 0.00 | 87 | 1008.3 |
| 20260905090348 | 73 | 96 | 0.0 | 1.0 | 0.00 | 0.00 | 0.00 | 87 | 1008.4 |
| 20260905085900 | 73 | 97 | 0.0 | 1.0 | 0.00 | 0.00 | 0.00 | 87 | 1008.4 |
| 20260905085340 | 73 | 97 | 0.0 | 0.0 | 0.00 | 0.00 | 0.00 | 87 | 1008.4 |
| 20260905084857 | 73 | 96 | 0.0 | 0.0 | 0.00 | 0.00 | 0.00 | 87 | 1008.5 |
| 20260905084351 | 73 | 97 | 0.0 | 0.0 | 0.00 | 0.00 | 0.00 | 87 | 1008.4 |
| 20260905083900 | 73 | 97 | 0.0 | 1.0 | 0.00 | 0.00 | 0.00 | 87 | 1008.4 |
| 20260905083338 | 73 | 96 | 0.0 | 1.0 | 0.00 | 0.00 | 0.00 | 87 | 1008.4 |
| 20260905082848 | 73 | 96 | 0.0 | 0.0 | 0.00 | 0.00 | 0.00 | 87 | 1008.5 |
| 20260905082408 | 73 | 97 | 0.0 | 0.0 | 0.00 | 0.00 | 0.00 | 87 | 1008.5 |
| 20260905081834 | 73 | 96 | 0.0 | 0.0 | 0.00 | 0.00 | 0.00 | 86 | 1008.6 |
| 20260905081325 | 73 | 96 | 0.0 | 1.0 | 0.00 | 0.00 | 0.00 | 86 | 1008.6 |
| 20260905080858 | 73 | 97 | 0.0 | 1.0 | 0.00 | 0.00 | 0.00 | 86 | 1008.5 |
| 20260905080337 | 73 | 97 | 0.0 | 1.0 | 0.00 | 0.00 | 0.00 | 86 | 1008.5 |
| 20260905075850 | 73 | 97 | 0.0 | 1.0 | 0.00 | 0.00 | 0.00 | 86 | 1008.5 |
| 20260905075358 | 73 | 96 | 0.0 | 1.0 | 0.00 | 0.00 | 0.00 | 86 | 1008.5 |
| 20260905074841 | 73 | 97 | 0.0 | 1.0 | 0.00 | 0.00 | 0.00 | 86 | 1008.5 |
| 20260905074345 | 73 | 96 | 0.0 | 1.0 | 0.00 | 0.00 | 0.00 | 86 | 1008.5 |
| 20260905073842 | 73 | 97 | 0.0 | 1.0 | 0.00 | 0.00 | 0.00 | 86 | 1008.4 |
| 20260905073342 | 73 | 97 | 0.0 | 0.0 | 0.00 | 0.00 | 0.00 | 86 | 1008.4 |
| 20260905072840 | 74 | 97 | 0.0 | 1.0 | 0.00 | 0.00 | 0.00 | 86 | 1008.5 |
| 20260905072340 | 74 | 97 | 0.0 | 1.0 | 0.00 | 0.00 | 0.00 | 86 | 1008.6 |
| 20260905071839 | 74 | 76 | 0.0 | 1.0 | 0.00 | 0.00 | 0.00 | 85 | 1008.7 |
| 20260905071336 | 74 | 77 | 0.0 | 0.0 | 0.00 | 0.00 | 0.00 | 85 | 1008.8 |
| 20260905070830 | 74 | 76 | 0.0 | 1.0 | 0.00 | 0.00 | 0.00 | 85 | 1008.8 |
| 20260905070351 | 74 | 76 | 0.0 | 1.0 | 0.00 | 0.00 | 0.00 | 85 | 1008.6 |
| 20260905065842 | 74 | 76 | 0.0 | 1.0 | 0.00 | 0.00 | 0.00 | 85 | 1008.7 |
| 20260905065350 | 74 | 76 | 0.0 | 1.0 | 0.00 | 0.00 | 0.00 | 85 | 1008.8 |
| 20260905064856 | 74 | 76 | 0.0 | 0.0 | 0.00 | 0.00 | 0.00 | 84 | 1008.9 |
| 20260905064336 | 74 | 76 | 0.0 | 0.0 | 0.00 | 0.00 | 0.00 | 84 | 1008.9 |
| 20260905063852 | 74 | 76 | 0.0 | 0.0 | 0.00 | 0.00 | 0.00 | 84 | 1008.9 |
| 20260905063339 | 74 | 76 | 0.0 | 0.0 | 0.00 | 0.00 | 0.00 | 84 | 1008.9 |
| 20260905062828 | 74 | 76 | 0.0 | 0.0 | 0.00 | 0.00 | 0.00 | 84 | 1008.9 |
| 20260905062332 | 74 | 76 | 0.0 | 1.0 | 0.00 | 0.00 | 0.00 | 84 | 1008.9 |
| 20260905061827 | 74 | 76 | 0.0 | 1.0 | 0.00 | 0.00 | 0.00 | 84 | 1008.9 |
| 20260905061402 | 74 | 76 | 0.0 | 1.0 | 0.00 | 0.00 | 0.00 | 84 | 1009.0 |
| 20260905060834 | 74 | 76 | 0.0 | 1.0 | 0.00 | 0.00 | 0.00 | 84 | 1009.1 |
| 20260905060333 | 74 | 78 | 0.0 | 1.0 | 0.00 | 0.00 | 0.00 | 84 | 1009.2 |
| 20260905055841 | 74 | 78 | 0.0 | 1.0 | 0.00 | 0.00 | 0.00 | 83 | 1009.2 |
| 20260905055353 | 75 | 78 | 0.0 | 1.0 | 0.00 | 0.00 | 0.00 | 83 | 1009.2 |
| 20260905054911 | 75 | 77 | 0.0 | 0.0 | 0.00 | 0.00 | 0.00 | 83 | 1009.4 |
| 20260905054343 | 75 | 77 | 0.0 | 0.0 | 0.00 | 0.00 | 0.00 | 83 | 1009.4 |
| 20260905053847 | 75 | 77 | 0.0 | 1.0 | 0.00 | 0.00 | 0.00 | 83 | 1009.6 |
| 20260905053346 | 75 | 77 | 0.0 | 1.0 | 0.00 | 0.00 | 0.00 | 82 | 1009.7 |
| 20260905052857 | 75 | 77 | 0.0 | 1.0 | 0.00 | 0.00 | 0.00 | 82 | 1009.8 |
| 20260905052336 | 75 | 76 | 0.0 | 1.0 | 0.00 | 0.00 | 0.00 | 81 | 1009.9 |
| 20260905051849 | 75 | 76 | 0.0 | 0.0 | 0.00 | 0.00 | 0.00 | 81 | 1009.9 |
| 20260905051344 | 75 | 77 | 0.0 | 0.0 | 0.00 | 0.00 | 0.00 | 81 | 1009.8 |
| 20260905050903 | 75 | 77 | 0.0 | 1.0 | 0.00 | 0.00 | 0.00 | 81 | 1009.8 |
| 20260905050353 | 76 | 77 | 0.0 | 1.0 | 0.00 | 0.00 | 0.00 | 80 | 1010.0 |
| 20260905045856 | 76 | 77 | 0.0 | 1.0 | 0.00 | 0.00 | 0.00 | 80 | 1010.0 |
| 20260905045401 | 76 | 77 | 0.0 | 0.0 | 0.00 | 0.00 | 0.00 | 80 | 1010.0 |
| 20260905044904 | 76 | 76 | 0.0 | 1.0 | 0.00 | 0.00 | 0.00 | 80 | 1010.1 |
| 20260905044351 | 76 | 76 | 0.0 | 1.0 | 0.00 | 0.00 | 0.00 | 80 | 1010.0 |
| 20260905043839 | 76 | 77 | 0.0 | 1.0 | 0.00 | 0.00 | 0.00 | 79 | 1009.9 |
| 20260905043340 | 76 | 77 | 0.0 | 1.0 | 0.00 | 0.00 | 0.00 | 79 | 1010.1 |
| 20260905042832 | 76 | 360 | 0.0 | 1.0 | 0.00 | 0.00 | 0.00 | 79 | 1010.3 |
| 20260905042347 | 76 | 161 | 0.0 | 1.0 | 0.00 | 0.00 | 0.00 | 79 | 1010.3 |
| 20260905041852 | 76 | 206 | 0.0 | 1.0 | 0.00 | 0.00 | 0.00 | 78 | 1010.3 |
| 20260905041329 | 76 | 206 | 0.0 | 1.0 | 0.00 | 0.00 | 0.00 | 78 | 1010.4 |
| 20260905040841 | 77 | 76 | 0.0 | 1.0 | 0.00 | 0.00 | 0.00 | 78 | 1010.3 |
| 20260905040332 | 77 | 76 | 0.0 | 1.0 | 0.00 | 0.00 | 0.00 | 78 | 1010.3 |
| 20260905035834 | 77 | 77 | 0.0 | 3.0 | 0.00 | 0.00 | 0.00 | 78 | 1010.2 |
| 20260905035340 | 77 | 70 | 0.0 | 3.0 | 0.00 | 0.00 | 0.00 | 78 | 1010.3 |
| 20260905034906 | 77 | 92 | 0.0 | 0.0 | 0.00 | 0.00 | 0.00 | 78 | 1010.3 |
| 20260905034348 | 77 | 92 | 0.0 | 1.0 | 0.00 | 0.00 | 0.00 | 77 | 1010.4 |
| 20260905033846 | 77 | 91 | 0.0 | 1.0 | 0.00 | 0.00 | 0.00 | 77 | 1010.2 |
| 20260905033341 | 77 | 92 | 0.0 | 1.0 | 0.00 | 0.00 | 0.00 | 77 | 1010.3 |
| 20260905032857 | 78 | 92 | 0.0 | 1.0 | 0.00 | 0.00 | 0.00 | 77 | 1010.3 |
| 20260905032356 | 78 | 92 | 0.0 | 1.0 | 0.00 | 0.00 | 0.00 | 77 | 1010.2 |
| 20260905031900 | 78 | 90 | 0.0 | 1.0 | 0.00 | 0.00 | 0.00 | 78 | 1010.2 |
| 20260905031402 | 78 | 88 | 0.0 | 1.0 | 0.00 | 0.00 | 0.00 | 79 | 1010.2 |
| 20260905030842 | 78 | 53 | 0.0 | 1.0 | 0.00 | 0.00 | 0.00 | 79 | 1010.1 |
| 20260905030352 | 79 | 331 | 0.0 | 1.0 | 0.00 | 0.00 | 0.00 | 79 | 1010.2 |
| 20260905025851 | 79 | 335 | 0.0 | 1.0 | 0.00 | 0.00 | 0.00 | 80 | 1010.4 |
| 20260905025357 | 79 | 304 | 0.0 | 1.0 | 0.00 | 0.00 | 0.00 | 80 | 1010.4 |
| 20260905024902 | 79 | 305 | 0.0 | 1.0 | 0.00 | 0.00 | 0.00 | 80 | 1010.2 |
| 20260905024358 | 79 | 96 | 0.0 | 2.0 | 0.00 | 0.00 | 0.00 | 80 | 1010.4 |
| 20260905023828 | 80 | 96 | 0.0 | 2.0 | 0.00 | 0.00 | 0.00 | 79 | 1010.5 |
| 20260905023331 | 80 | 109 | 0.0 | 5.0 | 0.00 | 0.00 | 0.00 | 79 | 1010.5 |
| 20260905022824 | 80 | 109 | 0.0 | 5.0 | 0.00 | 0.00 | 0.00 | 78 | 1010.6 |
| 20260905022402 | 80 | 78 | 0.0 | 5.0 | 0.00 | 0.00 | 0.00 | 76 | 1010.5 |
| 20260905021845 | 81 | 27 | 0.0 | 2.0 | 0.00 | 0.00 | 0.00 | 75 | 1010.7 |
| 20260905021336 | 81 | 34 | 0.0 | 2.0 | 0.00 | 0.00 | 0.00 | 75 | 1010.4 |
| 20260905020829 | 81 | 67 | 0.0 | 3.0 | 0.00 | 0.00 | 0.00 | 77 | 1010.2 |
| 20260905020349 | 81 | 67 | 0.0 | 3.0 | 0.00 | 0.00 | 0.00 | 77 | 1010.1 |
| 20260905015902 | 81 | 55 | 0.0 | 1.0 | 0.00 | 0.00 | 0.00 | 77 | 1010.2 |
| 20260905015329 | 81 | 55 | 0.0 | 3.0 | 0.00 | 0.00 | 0.00 | 77 | 1010.4 |
| 20260905014845 | 81 | 65 | 1.0 | 3.0 | 0.00 | 0.00 | 0.00 | 78 | 1010.1 |
| 20260905014339 | 82 | 55 | 0.0 | 2.0 | 0.00 | 0.00 | 0.00 | 79 | 1010.1 |
| 20260905013837 | 82 | 338 | 0.0 | 1.0 | 0.00 | 0.00 | 0.00 | 79 | 1010.7 |
| 20260905013347 | 82 | 336 | 0.0 | 1.0 | 0.00 | 0.00 | 0.00 | 79 | 1011.3 |
| 20260905012919 | 82 | 336 | 0.0 | 1.0 | 0.00 | 0.00 | 0.00 | 79 | 1011.0 |
| 20260905012400 | 82 | 336 | 0.0 | 1.0 | 0.00 | 0.00 | 0.00 | 79 | 1010.8 |
| 20260905011859 | 82 | 25 | 0.0 | 0.0 | 0.00 | 0.00 | 0.00 | 78 | 1010.5 |
| 20260905011333 | 82 | 25 | 0.0 | 0.0 | 0.00 | 0.00 | 0.00 | 78 | 1010.4 |
| 20260905010839 | 82 | 25 | 0.0 | 1.0 | 0.00 | 0.00 | 0.00 | 79 | 1010.3 |
| 20260905010330 | 82 | 25 | 0.0 | 1.0 | 0.00 | 0.00 | 0.00 | 78 | 1010.0 |
| 20260905005834 | 82 | 25 | 0.0 | 0.0 | 0.00 | 0.00 | 0.00 | 77 | 1010.1 |
| 20260905005334 | 82 | 25 | 0.0 | 1.0 | 0.00 | 0.00 | 0.00 | 77 | 1010.0 |
| 20260905004857 | 82 | 25 | 0.0 | 1.0 | 0.00 | 0.00 | 0.00 | 76 | 1009.8 |
| 20260905004345 | 82 | 25 | 0.0 | 2.0 | 0.00 | 0.00 | 0.00 | 76 | 1009.8 |
| 20260905003843 | 83 | 25 | 0.0 | 5.0 | 0.00 | 0.00 | 0.00 | 75 | 1009.8 |
| 20260905003348 | 83 | 41 | 0.0 | 5.0 | 0.00 | 0.00 | 0.00 | 76 | 1009.7 |
| 20260905002845 | 83 | 322 | 1.0 | 5.0 | 0.00 | 0.00 | 0.00 | 77 | 1009.6 |
| 20260905002359 | 83 | 119 | 0.0 | 0.0 | 0.00 | 0.00 | 0.00 | 82 | 1009.9 |
| 20260905001843 | 83 | 118 | 0.0 | 0.0 | 0.00 | 0.00 | 0.00 | 82 | 1010.1 |
| 20260905001332 | 83 | 119 | 0.0 | 0.0 | 0.00 | 0.00 | 0.00 | 80 | 1010.1 |
| 20260905000832 | 83 | 119 | 0.0 | 0.0 | 0.00 | 0.00 | 0.00 | 81 | 1010.0 |
| 20260905000355 | 83 | 119 | 0.0 | 0.0 | 0.00 | 0.00 | 0.00 | 83 | 1010.1 |
| 20260904235830 | 83 | 119 | 0.0 | 0.0 | 0.00 | 0.00 | 0.00 | 82 | 1010.0 |
| 20260904235336 | 83 | 119 | 0.0 | 0.0 | 0.00 | 0.00 | 0.00 | 82 | 1010.4 |
| 20260904234831 | 84 | 119 | 0.0 | 0.0 | 0.00 | 0.00 | 0.00 | 81 | 1010.5 |
| 20260904234329 | 84 | 118 | 0.0 | 0.0 | 0.00 | 0.00 | 0.00 | 81 | 1010.0 |
| 20260904233835 | 84 | 118 | 0.0 | 0.0 | 0.00 | 0.00 | 0.00 | 80 | 1009.6 |
| 20260904233352 | 84 | 119 | 0.0 | 0.0 | 0.00 | 0.00 | 0.00 | 79 | 1009.8 |
| 20260904232857 | 84 | 118 | 0.0 | 0.0 | 0.00 | 0.00 | 0.00 | 78 | 1010.0 |
| 20260904232330 | 85 | 118 | 0.0 | 0.0 | 0.00 | 0.00 | 0.00 | 77 | 1009.8 |
| 20260904231851 | 86 | 119 | 0.0 | 0.0 | 0.00 | 0.00 | 0.00 | 75 | 1009.9 |
| 20260904231359 | 87 | 118 | 0.0 | 0.0 | 0.00 | 0.00 | 0.00 | 74 | 1009.9 |
| 20260904230845 | 87 | 119 | 0.0 | 0.0 | 0.00 | 0.00 | 0.00 | 73 | 1010.1 |
| 20260904230335 | 88 | 118 | 0.0 | 1.0 | 0.00 | 0.00 | 0.00 | 70 | 1010.2 |
| 20260904225906 | 88 | 119 | 0.0 | 1.0 | 0.00 | 0.00 | 0.00 | 68 | 1010.2 |
| 20260904225340 | 88 | 118 | 0.0 | 0.0 | 0.00 | 0.00 | 0.00 | 67 | 1010.0 |
| 20260904224838 | 89 | 119 | 0.0 | 2.0 | 0.00 | 0.00 | 0.00 | 66 | 1009.7 |
| 20260904224330 | 89 | 119 | 0.0 | 4.0 | 0.00 | 0.00 | 0.00 | 65 | 1009.6 |
| 20260904223831 | 89 | 119 | 1.0 | 4.0 | 0.00 | 0.00 | 0.00 | 63 | 1009.3 |
| 20260904223334 | 89 | 82 | 0.0 | 2.0 | 0.00 | 0.00 | 0.00 | 61 | 1009.2 |
| 20260904222915 | 89 | 74 | 0.0 | 2.0 | 0.00 | 0.00 | 0.00 | 59 | 1009.3 |
| 20260904222355 | 90 | 5 | 0.0 | 0.0 | 0.00 | 0.00 | 0.00 | 59 | 1009.5 |
| 20260904221836 | 90 | 5 | 0.0 | 0.0 | 0.00 | 0.00 | 0.00 | 59 | 1009.5 |
| 20260904221331 | 91 | 360 | 0.0 | 0.0 | 0.00 | 0.00 | 0.00 | 59 | 1009.4 |
| 20260904220836 | 91 | 5 | 0.0 | 0.0 | 0.00 | 0.00 | 0.00 | 56 | 1009.5 |
| 20260904220339 | 92 | 5 | 0.0 | 0.0 | 0.00 | 0.00 | 0.00 | 57 | 1009.2 |
| 20260904215905 | 92 | 5 | 0.0 | 0.0 | 0.00 | 0.00 | 0.00 | 55 | 1009.0 |
| 20260904215338 | 93 | 5 | 0.0 | 0.0 | 0.00 | 0.00 | 0.00 | 54 | 1009.0 |
| 20260904214843 | 94 | 360 | 0.0 | 1.0 | 0.00 | 0.00 | 0.00 | 51 | 1009.3 |
| 20260904214349 | 94 | 5 | 0.0 | 1.0 | 0.00 | 0.00 | 0.00 | 47 | 1009.5 |
| 20260904213836 | 94 | 62 | 0.0 | 0.0 | 0.00 | 0.00 | 0.00 | 47 | 1009.6 |
| 20260904213340 | 95 | 61 | 0.0 | 1.0 | 0.00 | 0.00 | 0.00 | 47 | 1009.7 |
| 20260904212833 | 95 | 61 | 0.0 | 1.0 | 0.00 | 0.00 | 0.00 | 45 | 1009.7 |
| 20260904212341 | 96 | 65 | 0.0 | 2.0 | 0.00 | 0.00 | 0.00 | 46 | 1009.6 |
| 20260904211839 | 96 | 355 | 0.0 | 2.0 | 0.00 | 0.00 | 0.00 | 46 | 1009.5 |
| 20260904211351 | 95 | 251 | 0.0 | 2.0 | 0.00 | 0.00 | 0.00 | 46 | 1009.3 |
| 20260904210827 | 95 | 240 | 0.0 | 2.0 | 0.00 | 0.00 | 0.00 | 47 | 1009.2 |
| 20260904210335 | 95 | 344 | 0.0 | 2.0 | 0.00 | 0.00 | 0.00 | 46 | 1009.0 |
| 20260904205908 | 95 | 44 | 0.0 | 3.0 | 0.00 | 0.00 | 0.00 | 47 | 1008.9 |
| 20260904205353 | 95 | 69 | 0.0 | 3.0 | 0.00 | 0.00 | 0.00 | 45 | 1008.9 |
| 20260904204858 | 96 | 40 | 0.0 | 1.0 | 0.00 | 0.00 | 0.00 | 47 | 1008.7 |
| 20260904204331 | 96 | 40 | 0.0 | 1.0 | 0.00 | 0.00 | 0.00 | 46 | 1008.7 |
| 20260904203833 | 97 | 40 | 0.0 | 2.0 | 0.00 | 0.00 | 0.00 | 44 | 1008.7 |
| 20260904203346 | 98 | 73 | 0.0 | 2.0 | 0.00 | 0.00 | 0.00 | 45 | 1008.8 |
| 20260904202845 | 98 | 49 | 0.0 | 1.0 | 0.00 | 0.00 | 0.00 | 43 | 1008.9 |
| 20260904202350 | 98 | 49 | 0.0 | 3.0 | 0.00 | 0.00 | 0.00 | 44 | 1009.0 |
| 20260904201837 | 98 | 50 | 0.0 | 3.0 | 0.00 | 0.00 | 0.00 | 43 | 1009.0 |
| 20260904201340 | 99 | 92 | 0.0 | 2.0 | 0.00 | 0.00 | 0.00 | 42 | 1009.0 |
| 20260904200840 | 100 | 103 | 0.0 | 2.0 | 0.00 | 0.00 | 0.00 | 41 | 1009.2 |
| 20260904200334 | 100 | 264 | 0.0 | 3.0 | 0.00 | 0.00 | 0.00 | 42 | 1009.2 |
| 20260904195837 | 100 | 241 | 0.0 | 4.0 | 0.00 | 0.00 | 0.00 | 43 | 1009.2 |
| 20260904195328 | 99 | 325 | 0.0 | 4.0 | 0.00 | 0.00 | 0.00 | 42 | 1009.2 |
| 20260904194833 | 99 | 52 | 1.0 | 3.0 | 0.00 | 0.00 | 0.00 | 42 | 1009.2 |
| 20260904194355 | 99 | 51 | 0.0 | 3.0 | 0.00 | 0.00 | 0.00 | 42 | 1009.3 |
| 20260904193838 | 99 | 104 | 0.0 | 2.0 | 0.00 | 0.00 | 0.00 | 41 | 1009.2 |
| 20260904193405 | 99 | 105 | 0.0 | 0.0 | 0.00 | 0.00 | 0.00 | 43 | 1009.3 |
| 20260904192828 | 98 | 105 | 0.0 | 2.0 | 0.00 | 0.00 | 0.00 | 44 | 1009.4 |
| 20260904192357 | 98 | 108 | 0.0 | 2.0 | 0.00 | 0.00 | 0.00 | 42 | 1009.7 |
| 20260904191911 | 98 | 132 | 0.0 | 2.0 | 0.00 | 0.00 | 0.00 | 44 | 1009.8 |
| 20260904191355 | 98 | 319 | 0.0 | 2.0 | 0.00 | 0.00 | 0.00 | 44 | 1009.9 |
| 20260904190853 | 98 | 355 | 0.0 | 2.0 | 0.00 | 0.00 | 0.00 | 44 | 1009.9 |
| 20260904190338 | 98 | 61 | 0.0 | 4.0 | 0.00 | 0.00 | 0.00 | 45 | 1009.9 |
| 20260904185854 | 98 | 59 | 1.0 | 4.0 | 0.00 | 0.00 | 0.00 | 44 | 1010.1 |
| 20260904185345 | 98 | 161 | 0.0 | 2.0 | 0.00 | 0.00 | 0.00 | 46 | 1010.2 |
| 20260904184843 | 97 | 79 | 0.0 | 2.0 | 0.00 | 0.00 | 0.00 | 44 | 1010.2 |
| 20260904184340 | 97 | 46 | 0.0 | 1.0 | 0.00 | 0.00 | 0.00 | 44 | 1010.3 |
| 20260904183843 | 97 | 59 | 0.0 | 2.0 | 0.00 | 0.00 | 0.00 | 44 | 1010.4 |
| 20260904183342 | 97 | 355 | 0.0 | 3.0 | 0.00 | 0.00 | 0.00 | 45 | 1010.5 |
| 20260904182851 | 97 | 5 | 1.0 | 3.0 | 0.00 | 0.00 | 0.00 | 45 | 1010.4 |
| 20260904182326 | 97 | 225 | 0.0 | 3.0 | 0.00 | 0.00 | 0.00 | 45 | 1010.5 |
| 20260904181831 | 97 | 211 | 1.0 | 3.0 | 0.00 | 0.00 | 0.00 | 43 | 1010.5 |
| 20260904181327 | 97 | 245 | 1.0 | 3.0 | 0.00 | 0.00 | 0.00 | 44 | 1010.5 |
| 20260904180832 | 97 | 83 | 0.0 | 3.0 | 0.00 | 0.00 | 0.00 | 45 | 1010.6 |
| 20260904180345 | 97 | 355 | 0.0 | 5.0 | 0.00 | 0.00 | 0.00 | 48 | 1010.6 |
| 20260904175824 | 96 | 302 | 0.0 | 5.0 | 0.00 | 0.00 | 0.00 | 49 | 1010.9 |
| 20260904175329 | 96 | 242 | 1.0 | 4.0 | 0.00 | 0.00 | 0.00 | 48 | 1010.8 |
| 20260904174833 | 97 | 232 | 1.0 | 4.0 | 0.00 | 0.00 | 0.00 | 51 | 1010.7 |
| 20260904174343 | 97 | 84 | 0.0 | 4.0 | 0.00 | 0.00 | 0.00 | 50 | 1010.8 |
| 20260904173840 | 96 | 80 | 0.0 | 4.0 | 0.00 | 0.00 | 0.00 | 50 | 1010.8 |
| 20260904173344 | 96 | 92 | 0.0 | 2.0 | 0.00 | 0.00 | 0.00 | 49 | 1010.8 |
| 20260904172917 | 96 | 103 | 0.0 | 2.0 | 0.00 | 0.00 | 0.00 | 48 | 1010.8 |
| 20260904172348 | 96 | 115 | 0.0 | 4.0 | 0.00 | 0.00 | 0.00 | 48 | 1011.0 |
| 20260904171829 | 96 | 226 | 1.0 | 4.0 | 0.00 | 0.00 | 0.00 | 48 | 1010.9 |
| 20260904171333 | 96 | 96 | 0.0 | 3.0 | 0.00 | 0.00 | 0.00 | 49 | 1010.9 |
| 20260904170849 | 95 | 67 | 0.0 | 3.0 | 0.00 | 0.00 | 0.00 | 54 | 1010.9 |
| 20260904170348 | 95 | 342 | 1.0 | 3.0 | 0.00 | 0.00 | 0.00 | 54 | 1010.8 |
| 20260904165915 | 96 | 21 | 0.0 | 3.0 | 0.00 | 0.00 | 0.00 | 52 | 1010.9 |
| 20260904165347 | 96 | 349 | 1.0 | 3.0 | 0.00 | 0.00 | 0.00 | 50 | 1010.9 |
| 20260904164905 | 96 | 74 | 1.0 | 2.0 | 0.00 | 0.00 | 0.00 | 54 | 1010.9 |
| 20260904164356 | 96 | 78 | 0.0 | 2.0 | 0.00 | 0.00 | 0.00 | 52 | 1011.0 |
| 20260904163840 | 96 | 90 | 0.0 | 3.0 | 0.00 | 0.00 | 0.00 | 53 | 1011.1 |
| 20260904163340 | 95 | 148 | 0.0 | 4.0 | 0.00 | 0.00 | 0.00 | 52 | 1011.2 |
| 20260904162832 | 95 | 85 | 0.0 | 4.0 | 0.00 | 0.00 | 0.00 | 55 | 1011.3 |
| 20260904162339 | 95 | 232 | 1.0 | 4.0 | 0.00 | 0.00 | 0.00 | 53 | 1011.2 |
| 20260904161901 | 95 | 87 | 0.0 | 3.0 | 0.00 | 0.00 | 0.00 | 55 | 1011.4 |
| 20260904161351 | 96 | 263 | 1.0 | 3.0 | 0.00 | 0.00 | 0.00 | 53 | 1011.4 |
| 20260904160904 | 96 | 23 | 0.0 | 1.0 | 0.00 | 0.00 | 0.00 | 57 | 1011.4 |
| 20260904160347 | 95 | 350 | 0.0 | 3.0 | 0.00 | 0.00 | 0.00 | 55 | 1011.5 |
| 20260904155838 | 95 | 355 | 0.0 | 3.0 | 0.00 | 0.00 | 0.00 | 56 | 1011.6 |
| 20260904155333 | 95 | 355 | 0.0 | 2.0 | 0.00 | 0.00 | 0.00 | 57 | 1011.5 |
| 20260904154835 | 95 | 254 | 0.0 | 3.0 | 0.00 | 0.00 | 0.00 | 57 | 1011.7 |
| 20260904154338 | 95 | 87 | 0.0 | 2.0 | 0.00 | 0.00 | 0.00 | 58 | 1011.7 |
| 20260904153840 | 95 | 65 | 0.0 | 2.0 | 0.00 | 0.00 | 0.00 | 58 | 1011.7 |
| 20260904153335 | 94 | 61 | 0.0 | 2.0 | 0.00 | 0.00 | 0.00 | 60 | 1011.7 |
| 20260904152841 | 94 | 42 | 0.0 | 2.0 | 0.00 | 0.00 | 0.00 | 58 | 1011.7 |
| 20260904152334 | 94 | 41 | 0.0 | 1.0 | 0.00 | 0.00 | 0.00 | 59 | 1011.6 |
| 20260904151838 | 93 | 41 | 0.0 | 1.0 | 0.00 | 0.00 | 0.00 | 61 | 1011.5 |
| 20260904151335 | 93 | 41 | 0.0 | 3.0 | 0.00 | 0.00 | 0.00 | 59 | 1011.5 |
| 20260904150851 | 93 | 42 | 1.0 | 3.0 | 0.00 | 0.00 | 0.00 | 61 | 1011.5 |